{"data":{"norad_id":62058,"intl_designator":"2024-217B","name":"STARLINK-11426 [DTC]","alt_names":[],"object_type":"PAYLOAD","status":"ACTIVE","operator":null,"country":"US","launch_date":"2024-11-24","launch_site_code":"AFWTR","launch_vehicle":null,"mission":null,"orbit_class":"UNKNOWN","rcs_meters":null,"size_class":null,"mass_kg":null,"dimensions":null,"purposes":["comms"],"wikipedia_slug":null,"has_3d_model":false,"image_url":null,"decayed_at":null,"tle_current":{"epoch":"2026-05-25T03:13:34.110048Z","epoch_age_seconds":77611,"freshness":"FRESH","line1":"1 62058U 24217B   26145.13442257  .00142533  00000+0  11601-2 0  9991","line2":"2 62058  53.1570  54.1495 0000876  85.9191 274.1927 15.69733381 87122","mean_motion":15.69733381,"eccentricity":8.76e-5,"inclination_deg":53.157,"raan_deg":54.1495,"arg_perigee_deg":85.9191,"mean_anomaly_deg":274.1927,"bstar":0.0011601,"rev_number":8712,"period_min":91.735323809107,"perigee_km":359.06961277452,"apogee_km":360.25007478155,"semimajor_km":6737.796843778,"source":"CELESTRAK","updated_at":"2026-05-25T13:38:19.529617Z"}}}